Location: Bidwell Hollow
(37.7387°N, 90.1707°W)
Time: 01:32:15
(UTC+00:00)

Tiros 1 despin weight - Pass Details

Date: 15 May 2026
Orbit: 554 x 591 km, 48.2° (Epoch: 6 June)

Event Time Altitude Azimuth Distance (km) Brightness Sun altitude
Rises 10:21:14 0° 225° (SW) 2,757 - -6.0°
Exits shadow 10:22:40 - 224° (SW) 2,188 ? -5.8°
Reaches altitude 10° 10:23:31 10° 222° (SW) 1,857 ? -5.7°
Maximum altitude 10:27:41 61° 142° (SE) 638 ? -4.9°
Drops below altitude 10° 10:31:51 10° 62° (ENE) 1,845 ? -4.2°
Sets 10:34:07 0° 59° (ENE) 2,738 ? -3.8°
